CSC5051 YSSY-YBBN

Flight info

Callsign CSC5051
Flight time 1h 16m
Altitude 22000
Route OLSEM1/34R OLSEM Y193 BANDA H252 GOMOL
Aircraft A20N/M-SDE2E3FGHIRWXY/LB1

Departure

Time 2026-05-07 13:23
Airport Sydney Kingsford Smith International Airport (YSSY)

Arrival

Time 2026-05-07 14:39
Airport Brisbane International Airport (YBBN)
Time Latitude Longitude Altitude Speed Heading
2026-05-07 12:41 -33.94334 151.18125 25 ft 0 kts 158°
2026-05-07 13:03 -33.94325 151.18121 25 ft 2 kts 162°
2026-05-07 13:03 -33.94311 151.18116 26 ft 2 kts 150°
2026-05-07 13:03 -33.94300 151.18106 25 ft 1 kts 128°
2026-05-07 13:03 -33.94294 151.18096 29 ft 2 kts 135°
2026-05-07 13:04 -33.94284 151.18087 30 ft 2 kts 149°
2026-05-07 13:04 -33.94270 151.18079 26 ft 1 kts 168°
2026-05-07 13:04 -33.94268 151.18078 26 ft 0 kts 168°
2026-05-07 13:04 -33.94253 151.18077 25 ft 2 kts 199°
2026-05-07 13:05 -33.94239 151.18086 27 ft 2 kts 230°
2026-05-07 13:05 -33.94234 151.18095 29 ft 0 kts 246°
2026-05-07 13:10 -33.94254 151.18028 28 ft 13 kts 251°
2026-05-07 13:10 -33.94298 151.17924 27 ft 15 kts 215°
2026-05-07 13:11 -33.94410 151.17910 28 ft 18 kts 178°
2026-05-07 13:11 -33.94537 151.17893 24 ft 19 kts 175°
2026-05-07 13:11 -33.94672 151.17921 27 ft 20 kts 167°
2026-05-07 13:11 -33.94821 151.17959 21 ft 24 kts 169°
2026-05-07 13:12 -33.94985 151.18000 25 ft 24 kts 169°
2026-05-07 13:12 -33.95095 151.18067 29 ft 17 kts 120°
2026-05-07 13:12 -33.95081 151.18206 25 ft 19 kts 78°
2026-05-07 13:12 -33.95053 151.18374 25 ft 22 kts 78°
2026-05-07 13:13 -33.95046 151.18412 29 ft 0 kts 79°
2026-05-07 13:14 -33.95046 151.18413 29 ft 1 kts 79°
2026-05-07 13:14 -33.95045 151.18436 28 ft 4 kts 89°
2026-05-07 13:14 -33.95053 151.18485 29 ft 8 kts 110°
2026-05-07 13:14 -33.95100 151.18545 28 ft 13 kts 140°
2026-05-07 13:15 -33.95187 151.18632 26 ft 19 kts 144°
2026-05-07 13:15 -33.95312 151.18713 25 ft 22 kts 160°
2026-05-07 13:15 -33.95476 151.18765 21 ft 26 kts 168°
2026-05-07 13:15 -33.95662 151.18807 25 ft 28 kts 167°
2026-05-07 13:16 -33.95855 151.18864 25 ft 29 kts 168°
2026-05-07 13:16 -33.96059 151.18913 25 ft 26 kts 168°
2026-05-07 13:16 -33.96240 151.18961 29 ft 27 kts 166°
2026-05-07 13:16 -33.96433 151.19013 20 ft 30 kts 169°
2026-05-07 13:17 -33.96641 151.19057 18 ft 25 kts 171°
2026-05-07 13:17 -33.96819 151.19078 18 ft 26 kts 175°
2026-05-07 13:17 -33.97001 151.19113 18 ft 27 kts 166°
2026-05-07 13:17 -33.97110 151.19159 21 ft 0 kts 136°
2026-05-07 13:18 -33.97113 151.19164 21 ft 2 kts 134°
2026-05-07 13:18 -33.97132 151.19203 20 ft 8 kts 105°
2026-05-07 13:19 -33.97121 151.19273 22 ft 0 kts 75°
2026-05-07 13:20 -33.97121 151.19274 22 ft 1 kts 75°
2026-05-07 13:20 -33.97118 151.19286 22 ft 0 kts 75°
2026-05-07 13:21 -33.97114 151.19303 21 ft 9 kts 72°
2026-05-07 13:21 -33.97040 151.19362 22 ft 10 kts 346°
2026-05-07 13:22 -33.97036 151.19362 21 ft 0 kts 348°
2026-05-07 13:22 -33.96766 151.19286 17 ft 86 kts 346°
2026-05-07 13:22 -33.95944 151.19078 30 ft 156 kts 345°
2026-05-07 13:22 -33.94734 151.18818 356 ft 192 kts 345°
2026-05-07 13:23 -33.93332 151.18558 876 ft 214 kts 347°
2026-05-07 13:23 -33.91767 151.18418 1595 ft 237 kts 360°
2026-05-07 13:23 -33.90127 151.18903 2531 ft 253 kts 17°
2026-05-07 13:23 -33.88470 151.19949 3003 ft 287 kts 35°
2026-05-07 13:24 -33.86853 151.21593 3479 ft 307 kts 44°
2026-05-07 13:24 -33.85372 151.23414 4221 ft 301 kts 55°
2026-05-07 13:24 -33.84320 151.25488 5689 ft 282 kts 66°
2026-05-07 13:24 -33.83511 151.27613 6753 ft 286 kts 71°
2026-05-07 13:25 -33.82810 151.29881 7621 ft 293 kts 73°
2026-05-07 13:25 -33.81918 151.32117 8500 ft 302 kts 58°
2026-05-07 13:25 -33.80640 151.34161 9353 ft 310 kts 52°
2026-05-07 13:25 -33.79258 151.36197 9997 ft 316 kts 52°
2026-05-07 13:26 -33.77879 151.38305 10493 ft 330 kts 54°
2026-05-07 13:26 -33.76456 151.40603 10805 ft 355 kts 56°
2026-05-07 13:26 -33.74976 151.43087 11203 ft 373 kts 57°
2026-05-07 13:26 -33.73466 151.45660 11936 ft 380 kts 58°
2026-05-07 13:27 -33.71929 151.48285 12683 ft 387 kts 58°
2026-05-07 13:27 -33.70365 151.50956 13425 ft 395 kts 59°
2026-05-07 13:27 -33.68773 151.53674 14138 ft 402 kts 59°
2026-05-07 13:27 -33.67153 151.56439 14828 ft 407 kts 59°
2026-05-07 13:28 -33.65429 151.59167 15502 ft 416 kts 51°
2026-05-07 13:28 -33.63314 151.61583 16162 ft 424 kts 39°
2026-05-07 13:28 -33.60871 151.63599 16848 ft 429 kts 32°
2026-05-07 13:28 -33.58356 151.65557 17545 ft 433 kts 32°
2026-05-07 13:29 -33.55817 151.67544 18213 ft 438 kts 32°
2026-05-07 13:29 -33.53256 151.69554 18845 ft 442 kts 32°
2026-05-07 13:29 -33.50649 151.71501 19432 ft 445 kts 26°
2026-05-07 13:29 -33.47810 151.73027 20031 ft 445 kts 15°
2026-05-07 13:30 -33.44843 151.74066 20631 ft 445 kts
2026-05-07 13:30 -33.41842 151.75023 21236 ft 448 kts
2026-05-07 13:30 -33.38818 151.75997 21839 ft 452 kts
2026-05-07 13:30 -33.35773 151.76981 22435 ft 455 kts
2026-05-07 13:31 -33.32709 151.77972 23014 ft 459 kts
2026-05-07 13:31 -33.29616 151.78972 23591 ft 462 kts
2026-05-07 13:31 -33.26501 151.79978 24087 ft 465 kts
2026-05-07 13:31 -33.23366 151.80990 24579 ft 468 kts
2026-05-07 13:32 -33.20216 151.82006 25061 ft 471 kts
2026-05-07 13:32 -33.17042 151.83029 25525 ft 473 kts
2026-05-07 13:32 -33.13858 151.84054 25989 ft 476 kts
2026-05-07 13:32 -33.10650 151.85086 26450 ft 478 kts
2026-05-07 13:33 -33.07421 151.86124 26901 ft 481 kts 10°
2026-05-07 13:33 -33.04184 151.87163 27338 ft 483 kts 10°
2026-05-07 13:33 -33.00932 151.88206 27772 ft 485 kts 10°
2026-05-07 13:33 -32.97664 151.89253 28198 ft 487 kts 10°
2026-05-07 13:34 -32.94427 151.90289 28606 ft 489 kts 10°
2026-05-07 13:34 -32.87820 151.92401 29389 ft 493 kts 10°
2026-05-07 13:34 -32.84503 151.93461 29788 ft 494 kts 11°
2026-05-07 13:35 -32.81175 151.94523 30181 ft 496 kts 11°
2026-05-07 13:35 -32.77842 151.95587 30550 ft 496 kts 10°
2026-05-07 13:35 -32.74514 151.96650 31003 ft 495 kts 10°
2026-05-07 13:35 -32.71194 151.97709 31460 ft 493 kts 10°
2026-05-07 13:36 -32.67891 151.98762 31996 ft 489 kts
2026-05-07 13:36 -32.64624 151.99804 32589 ft 484 kts
2026-05-07 13:36 -32.61392 152.00834 33015 ft 479 kts
2026-05-07 13:36 -32.58188 152.01854 33144 ft 475 kts
2026-05-07 13:37 -32.54998 152.02865 33159 ft 474 kts
2026-05-07 13:37 -32.48624 152.04882 33166 ft 474 kts
2026-05-07 13:38 -32.42261 152.06895 33161 ft 473 kts
2026-05-07 13:38 -32.35904 152.08905 33167 ft 472 kts
2026-05-07 13:39 -32.29557 152.10910 33167 ft 472 kts
2026-05-07 13:39 -32.23215 152.12910 33161 ft 471 kts
2026-05-07 13:40 -32.17407 152.14738 33161 ft 471 kts
2026-05-07 13:40 -32.11080 152.16727 33165 ft 470 kts
2026-05-07 13:41 -32.04755 152.18713 33162 ft 470 kts
2026-05-07 13:41 -31.98434 152.20694 33161 ft 470 kts
2026-05-07 13:42 -31.92113 152.22674 33158 ft 470 kts
2026-05-07 13:42 -31.85794 152.24649 33162 ft 470 kts
2026-05-07 13:43 -31.79477 152.26621 33169 ft 470 kts
2026-05-07 13:43 -31.73163 152.28589 33177 ft 469 kts
2026-05-07 13:44 -31.66850 152.30554 33180 ft 469 kts
2026-05-07 13:44 -31.60542 152.32515 33182 ft 469 kts
2026-05-07 13:45 -31.54243 152.34472 33179 ft 467 kts
2026-05-07 13:45 -31.47966 152.36418 33179 ft 466 kts
2026-05-07 13:46 -31.41695 152.38358 33179 ft 466 kts
2026-05-07 13:46 -31.35433 152.40293 33179 ft 465 kts
2026-05-07 13:47 -31.29167 152.42227 33184 ft 466 kts
2026-05-07 13:47 -31.22904 152.44160 33175 ft 464 kts
2026-05-07 13:48 -31.16648 152.46085 33182 ft 465 kts
2026-05-07 13:48 -31.10387 152.48007 33173 ft 466 kts
2026-05-07 13:49 -31.04125 152.49932 33174 ft 465 kts
2026-05-07 13:49 -30.97871 152.51851 33173 ft 465 kts
2026-05-07 13:50 -30.91657 152.53754 33170 ft 465 kts
2026-05-07 13:50 -30.85405 152.55665 33169 ft 464 kts
2026-05-07 13:51 -30.79163 152.57573 33173 ft 464 kts
2026-05-07 13:51 -30.72945 152.59789 33175 ft 468 kts
2026-05-07 13:52 -30.66755 152.62103 33169 ft 468 kts
2026-05-07 13:52 -30.60563 152.64369 33171 ft 466 kts
2026-05-07 13:53 -30.54364 152.66610 33169 ft 468 kts
2026-05-07 13:53 -30.48154 152.68855 33166 ft 467 kts
2026-05-07 13:54 -30.41942 152.71099 33169 ft 468 kts
2026-05-07 13:54 -30.36778 152.72960 33171 ft 468 kts
2026-05-07 13:55 -30.30554 152.75202 33166 ft 467 kts
2026-05-07 13:55 -30.24350 152.77433 33162 ft 467 kts
2026-05-07 13:56 -30.18154 152.79657 33154 ft 465 kts
2026-05-07 13:56 -30.11967 152.81876 33163 ft 465 kts
2026-05-07 13:57 -30.05789 152.84089 33164 ft 465 kts
2026-05-07 13:57 -29.99613 152.86297 33162 ft 464 kts
2026-05-07 13:58 -29.93444 152.88501 33148 ft 464 kts
2026-05-07 13:58 -29.87286 152.90698 33151 ft 463 kts
2026-05-07 13:59 -29.81138 152.92887 33145 ft 463 kts
2026-05-07 13:59 -29.74986 152.95074 33144 ft 463 kts
2026-05-07 14:00 -29.68830 152.97261 33143 ft 463 kts
2026-05-07 14:00 -29.62664 152.99449 33141 ft 464 kts
2026-05-07 14:01 -29.56499 153.01635 33138 ft 464 kts
2026-05-07 14:01 -29.50331 153.03818 33138 ft 464 kts
2026-05-07 14:02 -29.44160 153.05999 33140 ft 464 kts
2026-05-07 14:02 -29.38019 153.08105 33144 ft 463 kts
2026-05-07 14:03 -29.31826 153.10050 33146 ft 460 kts
2026-05-07 14:03 -29.25639 153.11962 33147 ft 462 kts
2026-05-07 14:04 -29.19482 153.13895 32700 ft 456 kts
2026-05-07 14:04 -29.16422 153.14882 32026 ft 458 kts
2026-05-07 14:04 -29.13359 153.15922 31261 ft 460 kts
2026-05-07 14:04 -29.10291 153.16999 30479 ft 462 kts
2026-05-07 14:05 -29.07227 153.18096 29814 ft 459 kts
2026-05-07 14:05 -29.04193 153.19194 29164 ft 455 kts
2026-05-07 14:05 -29.01195 153.20280 28516 ft 451 kts
2026-05-07 14:05 -28.98217 153.21355 27872 ft 447 kts
2026-05-07 14:06 -28.95266 153.22417 27245 ft 443 kts
2026-05-07 14:06 -28.92337 153.23470 26626 ft 439 kts
2026-05-07 14:06 -28.89435 153.24512 26033 ft 436 kts
2026-05-07 14:06 -28.86554 153.25546 25444 ft 432 kts
2026-05-07 14:07 -28.83695 153.26571 24871 ft 429 kts
2026-05-07 14:07 -28.80854 153.27589 24317 ft 426 kts
2026-05-07 14:07 -28.78035 153.28600 23757 ft 423 kts 10°
2026-05-07 14:07 -28.75235 153.29602 23118 ft 421 kts 10°
2026-05-07 14:08 -28.72452 153.30598 22456 ft 418 kts 10°
2026-05-07 14:08 -28.69688 153.31586 21857 ft 415 kts 11°
2026-05-07 14:08 -28.66948 153.32566 21285 ft 411 kts 11°
2026-05-07 14:08 -28.64229 153.33539 20791 ft 406 kts 11°
2026-05-07 14:09 -28.61584 153.34489 20628 ft 392 kts 11°
2026-05-07 14:09 -28.59030 153.35408 20486 ft 378 kts 11°
2026-05-07 14:09 -28.56598 153.36280 20363 ft 365 kts 11°
2026-05-07 14:09 -28.54218 153.37133 20248 ft 353 kts 11°
2026-05-07 14:10 -28.51903 153.37958 19980 ft 346 kts 11°
2026-05-07 14:10 -28.49608 153.38772 19547 ft 345 kts 11°
2026-05-07 14:10 -28.47318 153.39582 19127 ft 344 kts 11°
2026-05-07 14:10 -28.45037 153.40392 18730 ft 343 kts 12°
2026-05-07 14:11 -28.42764 153.41200 18347 ft 341 kts 12°
2026-05-07 14:11 -28.40504 153.42004 17906 ft 340 kts 12°
2026-05-07 14:11 -28.38254 153.42805 17469 ft 338 kts 12°
2026-05-07 14:11 -28.36014 153.43602 17060 ft 337 kts 12°
2026-05-07 14:12 -28.33786 153.44396 16663 ft 335 kts 12°
2026-05-07 14:12 -28.31570 153.45185 16262 ft 333 kts 12°
2026-05-07 14:12 -28.29363 153.45969 15852 ft 331 kts 12°
2026-05-07 14:12 -28.27171 153.46748 15467 ft 329 kts 13°
2026-05-07 14:13 -28.24987 153.47523 15080 ft 328 kts 13°
2026-05-07 14:13 -28.22816 153.48294 14709 ft 326 kts 13°
2026-05-07 14:13 -28.20657 153.49060 14338 ft 324 kts 13°
2026-05-07 14:13 -28.18508 153.49823 13952 ft 324 kts 13°
2026-05-07 14:14 -28.16338 153.50302 13578 ft 313 kts 356°
2026-05-07 14:14 -28.14191 153.50124 13165 ft 307 kts 345°
2026-05-07 14:14 -28.12115 153.49650 12774 ft 303 kts 342°
2026-05-07 14:14 -28.10066 153.49123 12385 ft 301 kts 342°
2026-05-07 14:15 -28.08020 153.48620 11983 ft 300 kts 343°
2026-05-07 14:15 -28.05975 153.48154 11620 ft 298 kts 344°
2026-05-07 14:15 -28.03940 153.47715 11230 ft 297 kts 344°
2026-05-07 14:15 -28.01911 153.47289 10872 ft 296 kts 345°
2026-05-07 14:16 -27.99894 153.46872 10509 ft 294 kts 345°
2026-05-07 14:16 -27.97884 153.46458 10157 ft 292 kts 345°
2026-05-07 14:16 -27.95890 153.46046 9785 ft 290 kts 345°
2026-05-07 14:16 -27.93906 153.45636 9384 ft 289 kts 345°
2026-05-07 14:17 -27.91942 153.45231 9090 ft 284 kts 345°
2026-05-07 14:17 -27.89995 153.44828 9003 ft 287 kts 345°
2026-05-07 14:17 -27.88033 153.44421 8989 ft 286 kts 345°
2026-05-07 14:17 -27.86093 153.44023 8920 ft 279 kts 346°
2026-05-07 14:18 -27.84213 153.43638 8832 ft 269 kts 345°
2026-05-07 14:18 -27.82412 153.43271 8725 ft 258 kts 345°
2026-05-07 14:18 -27.80660 153.42911 8491 ft 254 kts 345°
2026-05-07 14:18 -27.78921 153.42550 8167 ft 253 kts 345°
2026-05-07 14:19 -27.77192 153.42192 7847 ft 252 kts 345°
2026-05-07 14:19 -27.75473 153.41837 7543 ft 251 kts 346°
2026-05-07 14:19 -27.73761 153.41483 7253 ft 249 kts 346°
2026-05-07 14:19 -27.72081 153.41137 6961 ft 248 kts 346°
2026-05-07 14:20 -27.70387 153.40788 6672 ft 247 kts 346°
2026-05-07 14:20 -27.68677 153.40435 6355 ft 246 kts 346°
2026-05-07 14:20 -27.66991 153.40087 6087 ft 245 kts 346°
2026-05-07 14:20 -27.65310 153.39742 6005 ft 248 kts 346°
2026-05-07 14:21 -27.63608 153.39392 6000 ft 248 kts 346°
2026-05-07 14:21 -27.61939 153.39050 6001 ft 247 kts 346°
2026-05-07 14:21 -27.60244 153.38702 5998 ft 248 kts 346°
2026-05-07 14:21 -27.58547 153.38353 5998 ft 248 kts 346°
2026-05-07 14:22 -27.56851 153.38006 6000 ft 248 kts 346°
2026-05-07 14:22 -27.55139 153.37779 6000 ft 250 kts 360°
2026-05-07 14:22 -27.53410 153.38123 5998 ft 254 kts 10°
2026-05-07 14:22 -27.51691 153.38576 5998 ft 253 kts 11°
2026-05-07 14:23 -27.49977 153.39064 6000 ft 254 kts 12°
2026-05-07 14:23 -27.48270 153.39574 6001 ft 254 kts 13°
2026-05-07 14:23 -27.46561 153.40096 5999 ft 254 kts 13°
2026-05-07 14:23 -27.44856 153.40619 6000 ft 254 kts 13°
2026-05-07 14:24 -27.43153 153.41142 5998 ft 253 kts 13°
2026-05-07 14:24 -27.41450 153.41665 5999 ft 255 kts 13°
2026-05-07 14:24 -27.39743 153.42189 5998 ft 254 kts 13°
2026-05-07 14:24 -27.38036 153.42711 5996 ft 254 kts 13°
2026-05-07 14:25 -27.36326 153.43234 5995 ft 255 kts 13°
2026-05-07 14:25 -27.34609 153.43759 5996 ft 256 kts 13°
2026-05-07 14:25 -27.32898 153.44282 5882 ft 254 kts 13°
2026-05-07 14:25 -27.31197 153.44802 5604 ft 254 kts 13°
2026-05-07 14:26 -27.29489 153.45322 5286 ft 254 kts 13°
2026-05-07 14:26 -27.27781 153.45843 4994 ft 254 kts 13°
2026-05-07 14:26 -27.26077 153.46362 4691 ft 253 kts 13°
2026-05-07 14:26 -27.24374 153.46880 4372 ft 254 kts 14°
2026-05-07 14:27 -27.22669 153.47399 4094 ft 253 kts 14°
2026-05-07 14:27 -27.20991 153.47911 3999 ft 251 kts 14°
2026-05-07 14:27 -27.19269 153.48438 4000 ft 257 kts 14°
2026-05-07 14:27 -27.17554 153.48958 3991 ft 256 kts 12°
2026-05-07 14:28 -27.15810 153.48977 4001 ft 251 kts 341°
2026-05-07 14:28 -27.14322 153.48055 3998 ft 243 kts 310°
2026-05-07 14:28 -27.13335 153.46551 3997 ft 237 kts 296°
2026-05-07 14:28 -27.12546 153.44939 3992 ft 235 kts 293°
2026-05-07 14:29 -27.11785 153.43339 4000 ft 235 kts 294°
2026-05-07 14:29 -27.10980 153.41740 4000 ft 237 kts 295°
2026-05-07 14:29 -27.10134 153.40153 4002 ft 237 kts 296°
2026-05-07 14:29 -27.09261 153.38576 4005 ft 239 kts 297°
2026-05-07 14:30 -27.08373 153.36998 3995 ft 238 kts 297°
2026-05-07 14:30 -27.07632 153.35369 4001 ft 231 kts 278°
2026-05-07 14:30 -27.07672 153.33633 4001 ft 223 kts 248°
2026-05-07 14:30 -27.08486 153.32211 3999 ft 216 kts 219°
2026-05-07 14:31 -27.09684 153.31172 4005 ft 218 kts 216°
2026-05-07 14:31 -27.10890 153.30144 3997 ft 217 kts 216°
2026-05-07 14:31 -27.12085 153.29116 4001 ft 217 kts 217°
2026-05-07 14:31 -27.13276 153.28084 4001 ft 216 kts 216°
2026-05-07 14:32 -27.14469 153.27050 3994 ft 217 kts 217°
2026-05-07 14:32 -27.15644 153.26027 3950 ft 210 kts 217°
2026-05-07 14:32 -27.16792 153.25081 3882 ft 200 kts 209°
2026-05-07 14:32 -27.18008 153.24422 3818 ft 189 kts 202°
2026-05-07 14:33 -27.19211 153.23897 3800 ft 188 kts 202°
2026-05-07 14:33 -27.20470 153.23226 3743 ft 204 kts 208°
2026-05-07 14:33 -27.21722 153.22483 3499 ft 203 kts 206°
2026-05-07 14:33 -27.22934 153.21790 3219 ft 187 kts 207°
2026-05-07 14:34 -27.24049 153.21148 2966 ft 174 kts 206°
2026-05-07 14:34 -27.25120 153.20534 2761 ft 168 kts 206°
2026-05-07 14:34 -27.26101 153.19971 2551 ft 149 kts 206°
2026-05-07 14:34 -27.26954 153.19481 2366 ft 128 kts 206°
2026-05-07 14:35 -27.27698 153.19054 2191 ft 113 kts 206°
2026-05-07 14:35 -27.28389 153.18658 2037 ft 113 kts 206°
2026-05-07 14:35 -27.29097 153.18251 1892 ft 113 kts 206°
2026-05-07 14:35 -27.29789 153.17854 1742 ft 112 kts 206°
2026-05-07 14:36 -27.30477 153.17459 1594 ft 114 kts 207°
2026-05-07 14:36 -27.31184 153.17053 1439 ft 114 kts 207°
2026-05-07 14:36 -27.31889 153.16648 1280 ft 114 kts 207°
2026-05-07 14:36 -27.32605 153.16237 1122 ft 117 kts 207°
2026-05-07 14:37 -27.33334 153.15817 967 ft 116 kts 208°
2026-05-07 14:37 -27.34784 153.14984 660 ft 117 kts 210°
2026-05-07 14:37 -27.35490 153.14579 493 ft 117 kts 210°
2026-05-07 14:38 -27.36225 153.14155 342 ft 116 kts 210°
2026-05-07 14:38 -27.36953 153.13736 193 ft 121 kts 210°
2026-05-07 14:38 -27.37698 153.13309 34 ft 119 kts 209°
2026-05-07 14:38 -27.38358 153.12908 22 ft 89 kts 207°
2026-05-07 14:39 -27.38797 153.12664 19 ft 61 kts 208°
2026-05-07 14:39 -27.39067 153.12350 18 ft 42 kts 242°
2026-05-07 14:39 -27.39105 153.12284 18 ft 0 kts 236°
2026-05-07 14:40 -27.39129 153.12230 19 ft 22 kts 257°
2026-05-07 14:40 -27.39203 153.12044 18 ft 27 kts 201°
2026-05-07 14:40 -27.39388 153.11970 18 ft 31 kts 206°
2026-05-07 14:40 -27.39596 153.11850 19 ft 36 kts 207°
2026-05-07 14:41 -27.39834 153.11719 17 ft 40 kts 213°
2026-05-07 14:41 -27.40056 153.11684 18 ft 26 kts 125°
2026-05-07 14:41 -27.40046 153.11795 18 ft 4 kts 31°
2026-05-07 14:41 -27.40014 153.11785 17 ft 22 kts 349°
2026-05-07 14:42 -27.39821 153.11854 18 ft 32 kts 28°
2026-05-07 14:42 -27.39613 153.11975 18 ft 35 kts 27°
2026-05-07 14:42 -27.39392 153.12101 19 ft 36 kts 26°
2026-05-07 14:42 -27.39159 153.12195 18 ft 33 kts 343°
2026-05-07 14:43 -27.39003 153.12024 17 ft 30 kts 316°
2026-05-07 14:43 -27.38954 153.12001 17 ft 1 kts 347°
2026-05-07 14:43 -27.38952 153.11999 17 ft 1 kts 334°
2026-05-07 14:43 -27.38933 153.11967 17 ft 8 kts 313°
2026-05-07 14:44 -27.38898 153.11959 17 ft 0 kts